CAPE
2 2 2 2 1 2 1 0 1 1 1 2 1 1 1 0 0 0 0 0 0 0 0 0 0 0 0 0 0 0 0 0 12 0 0 0 0 0 0 0 0 0 25 22 2 0 0
0 0 1 1 1 1 3 2 1 1 1 2 2 1 1 0 0 0 0 0 0 0 0 0 0 0 0 0 0 0 0 0 0 0 0 0 0 0 0 0 0 0 0 0 0 0 0
0 0 0 0 0 1 1 2 1 1 1 1 2 2 0 0 0 0 0 0 0 0 0 0 0 0 0 0 0 0 0 0 0 0 0 0 0 0 0 0 0 0 0 0 0 0 0
0 0 0 0 0 0 2 2 3 2 1 1 2 1 0 0 0 0 0 0 0 0 0 0 0 0 0 0 0 0 0 0 0 0 0 0 0 0 0 0 0 0 0 0 0 0 0
0 0 0 0 0 1 3 1 1 1 1 1 1 0 0 0 0 0 0 0 0 0 0 0 0 0 0 0 0 0 0 0 0 0 0 0 0 0 0 0 0 0 0 0 0 0 103
0 0 0 0 0 2 2 1 1 1 0 0 0 0 0 0 0 0 0 0 0 0 0 0 0 0 0 0 0 0 0 0 0 0 0 0 0 0 0 0 0 0 0 0 0 73 142
0 0 0 0 0 2 2 2 2 2 0 0 0 0 0 0 0 0 0 0 0 0 0 0 0 0 0 0 0 0 0 0 0 0 0 0 0 0 0 0 0 0 0 0 0 91 144
0 0 0 0 0 1 2 0 0 0 0 0 0 0 0 0 0 0 0 0 0 0 0 0 0 0 0 0 0 0 0 0 0 0 0 0 0 0 0 0 0 0 0 0 0 30 216
0 0 0 0 0 0 1 0 0 0 0 0 0 0 0 0 0 0 0 0 0 0 0 0 0 0 0 0 0 0 0 0 0 0 0 0 0 0 0 0 0 0 0 0 0 89 95
0 0 0 0 0 0 1 1 0 0 0 0 0 1 0 0 0 0 0 0 0 0 0 0 0 0 0 0 0 0 0 0 0 0 0 0 0 0 0 0 0 0 0 0 0 43 91
0 0 0 0 0 0 2 1 0 0 0 0 0 0 0 0 0 0 0 0 0 0 0 0 0 0 0 0 0 0 0 0 0 0 0 0 0 0 0 0 0 0 0 0 0 0 100
0 0 0 0 0 0 0 1 0 0 0 0 0 0 0 0 0 0 0 0 0 0 0 0 0 0 0 0 0 0 0 0 0 0 0 0 0 0 0 0 0 0 0 0 0 0 0
2 0 0 0 0 0 0 1 0 0 0 0 0 0 0 0 0 0 0 0 0 0 0 0 0 0 0 0 0 0 0 0 0 0 0 0 0 0 0 0 0 0 0 0 0 0 0
2 0 0 0 0 0 0 1 0 0 0 0 0 0 0 0 0 0 0 0 0 0 0 0 0 0 0 0 0 0 0 0 0 0 0 0 0 0 0 0 0 0 0 0 0 0 3
3 0 0 0 0 0 0 0 0 0 0 0 0 0 0 0 0 0 0 0 0 0 0 0 0 0 0 0 0 0 0 0 0 0 0 0 0 0 0 0 0 0 0 0 0 0 2
2 0 0 0 0 0 0 0 0 0 0 0 0 0 0 0 0 0 0 0 0 0 0 0 0 0 0 0 0 0 0 0 0 0 0 0 0 0 0 0 0 0 0 0 0 0 0
3 0 0 0 0 0 0 0 0 0 0 0 0 0 0 0 0 0 0 0 0 0 0 0 0 0 0 0 0 0 0 0 0 0 0 0 0 0 0 0 0 0 0 0 0 0 0
2 1 0 0 0 0 0 0 0 0 0 0 0 0 0 0 0 0 0 0 0 0 0 0 0 0 0 0 0 0 0 0 0 0 0 0 0 0 0 0 0 0 0 0 0 0 0
2 1 0 0 0 0 0 0 0 0 0 0 0 0 0 0 0 0 0 0 0 0 0 0 0 0 0 0 0 0 0 0 0 0 0 0 0 0 0 0 0 0 0 0 0 0 0
2 1 0 0 0 0 0 0 0 0 0 0 0 0 0 0 0 0 0 0 0 0 0 0 0 0 0 0 0 0 0 0 0 0 0 0 0 0 0 0 0 0 0 0 0 0 0
3 1 0 0 0 0 0 0 0 0 0 0 0 0 0 0 0 0 0 0 0 0 0 0 0 0 0 0 0 0 0 0 0 0 0 0 0 0 0 0 0 0 0 0 0 0 0
2 1 0 0 0 0 0 0 0 0 0 0 0 0 0 0 0 0 0 0 1 2 0 0 0 0 0 0 0 0 0 0 0 0 0 0 0 0 0 0 0 0 0 0 0 0 0
2 0 0 0 0 0 0 0 0 0 0 0 0 0 0 0 0 0 0 2 0 0 4 7 13 6 2 5 0 0 0 0 0 0 0 0 0 0 0 0 0 0 0 0 0 0 0
2 0 0 0 0 0 0 0 0 0 0 0 0 0 0 0 0 0 0 0 0 0 6 11 14 11 1 0 0 0 0 0 0 0 0 0 0 0 0 0 0 21 0 0 0 18 0
2 0 0 0 0 0 0 0 0 0 0 0 0 0 0 0 0 0 0 1 0 0 3 3 7 0 0 0 1 8 0 0 0 0 0 0 0 0 0 0 5 54 32 38 58 1 0
0 0 0 0 0 0 0 0 0 0 0 0 0 0 0 0 0 0 1 1 3 2 3 5 0 0 0 19 19 8 20 20 2 0 0 0 0 0 0 0 0 81 0 0 0 14 0
0 0 0 0 0 0 0 0 0 0 0 1 0 0 0 0 0 0 0 0 0 0 0 0 2 10 8 1 8 8 4 5 3 6 0 0 0 0 0 0 8 37 9 6 38 0 0
0 0 0 0 0 0 0 0 0 0 0 2 0 0 1 0 0 0 0 0 0 0 3 0 0 7 6 1 0 3 1 15 3 12 6 0 0 0 0 0 0 0 21 79 21 0 0
0 0 0 0 0 0 0 0 0 0 0 0 0 0 0 0 0 0 0 0 0 0 1 0 2 18 3 1 0 0 3 4 8 12 15 7 0 0 0 0 0 1 2 1 0 19 0
CIN
-0 -0 -0 -0 -0 -0 -0 -0 -0 -0 -0 -0 -0 -0 -0 -0 -0 -0 -0 -0 -0 -0 -0 -0 -0 -0 -0 -0 -0 -0 -0 -0 -111 -0 -0 -0 -0 -0 -0 -0 -0 -0 -42 -45 -10 -0 -0
-0 -0 -0 -0 -0 -0 -0 -0 -0 -0 -0 -0 -0 -0 -0 -0 -0 -0 -0 -0 -0 -0 -0 -0 -0 -0 -0 -0 -0 -0 -0 -0 -0 -0 -0 -0 -0 -0 -0 -0 -0 -0 -0 -0 -0 -0 -0
-0 -0 -0 -0 -0 -0 -0 -0 -0 -0 -0 -0 -0 -0 -0 -0 -0 -0 -0 -0 -0 -0 -0 -0 -0 -0 -0 -0 -0 -0 -0 -0 -0 -0 -0 -0 -0 -0 -0 -0 -0 -0 -0 -0 -0 -0 -0
-0 -0 -0 -0 -0 -0 -0 -0 -0 -0 -0 -0 -0 -0 -0 -0 -0 -0 -0 -0 -0 -0 -0 -0 -0 -0 -0 -0 -0 -0 -0 -0 -0 -0 -0 -0 -0 -0 -0 -0 -0 -0 -0 -0 -0 -0 -0
-0 -0 -0 -0 -0 -0 -0 -0 -0 -0 -0 -0 -0 -0 -0 -0 -0 -0 -0 -0 -0 -0 -0 -0 -0 -0 -0 -0 -0 -0 -0 -0 -0 -0 -0 -0 -0 -0 -0 -0 -0 -0 -0 -0 -0 -0 -28
-0 -0 -0 -0 -0 -0 -0 -0 -0 -0 -0 -0 -0 -0 -0 -0 -0 -0 -0 -0 -0 -0 -0 -0 -0 -0 -0 -0 -0 -0 -0 -0 -0 -0 -0 -0 -0 -0 -0 -0 -0 -0 -0 -0 -0 -21 -20
-0 -0 -0 -0 -0 -0 -0 -0 -0 -0 -0 -0 -0 -0 -0 -0 -0 -0 -0 -0 -0 -0 -0 -0 -0 -0 -0 -0 -0 -0 -0 -0 -0 -0 -0 -0 -0 -0 -0 -0 -0 -0 -0 -0 -0 -15 -6
-0 -0 -0 -0 -0 -0 -0 -0 -0 -0 -0 -0 -0 -0 -0 -0 -0 -0 -0 -0 -0 -0 -0 -0 -0 -0 -0 -0 -0 -0 -0 -0 -0 -0 -0 -0 -0 -0 -0 -0 -0 -0 -0 -0 -0 -56 -9
-0 -0 -0 -0 -0 -0 -0 -0 -0 -0 -0 -0 -0 -0 -0 -0 -0 -0 -0 -0 -0 -0 -0 -0 -0 -0 -0 -0 -0 -0 -0 -0 -0 -0 -0 -0 -0 -0 -0 -0 -0 -0 -0 -0 -0 -28 -23
-0 -0 -0 -0 -0 -0 -0 -0 -0 -0 -0 -0 -0 -0 -0 -0 -0 -0 -0 -0 -0 -0 -0 -0 -0 -0 -0 -0 -0 -0 -0 -0 -0 -0 -0 -0 -0 -0 -0 -0 -0 -0 -0 -0 -0 -34 -4
-0 -0 -0 -0 -0 -0 -0 -0 -0 -0 -0 -0 -0 -0 -0 -0 -0 -0 -0 -0 -0 -0 -0 -0 -0 -0 -0 -0 -0 -0 -0 -0 -0 -0 -0 -0 -0 -0 -0 -0 -0 -0 -0 -0 -0 -0 -6
-0 -0 -0 -0 -0 -0 -0 -0 -0 -0 -0 -0 -0 -0 -0 -0 -0 -0 -0 -0 -0 -0 -0 -0 -0 -0 -0 -0 -0 -0 -0 -0 -0 -0 -0 -0 -0 -0 -0 -0 -0 -0 -0 -0 -0 -0 -1
-0 -0 -0 -0 -0 -0 -0 -0 -0 -0 -0 -0 -0 -0 -0 -0 -0 -0 -0 -0 -0 -0 -0 -0 -0 -0 -0 -0 -0 -0 -0 -0 -0 -0 -0 -0 -0 -0 -0 -0 -0 -0 -0 -0 -0 -0 -0
-0 -0 -0 -0 -0 -0 -0 -0 -0 -0 -0 -0 -0 -0 -0 -0 -0 -0 -0 -0 -0 -0 -0 -0 -0 -0 -0 -0 -0 -0 -0 -0 -0 -0 -0 -0 -0 -0 -0 -0 -0 -0 -0 -0 -0 -0 -5
-0 -0 -0 -0 -0 -0 -0 -0 -0 -0 -0 -0 -0 -0 -0 -0 -0 -0 -0 -0 -0 -0 -0 -0 -0 -0 -0 -0 -0 -0 -0 -0 -0 -0 -0 -0 -0 -0 -0 -0 -0 -0 -0 -0 -0 -0 -1
-0 -0 -0 -0 -0 -0 -0 -0 -0 -0 -0 -0 -0 -0 -0 -0 -0 -0 -0 -0 -0 -0 -0 -0 -0 -0 -0 -0 -0 -0 -0 -0 -0 -0 -0 -0 -0 -0 -0 -0 -0 -0 -0 -0 -0 -0 -0
-0 -0 -0 -0 -0 -0 -0 -0 -0 -0 -0 -0 -0 -0 -0 -0 -0 -0 -0 -0 -0 -0 -0 -0 -0 -0 -0 -0 -0 -0 -0 -0 -0 -0 -0 -0 -0 -0 -0 -0 -0 -0 -0 -0 -0 -0 -0
-0 -0 -0 -0 -0 -0 -0 -0 -0 -0 -0 -0 -0 -0 -0 -0 -0 -0 -0 -0 -0 -0 -0 -0 -0 -0 -0 -0 -0 -0 -0 -0 -0 -0 -0 -0 -0 -0 -0 -0 -0 -0 -0 -0 -0 -0 -0
-0 -0 -0 -0 -0 -0 -0 -0 -0 -0 -0 -0 -0 -0 -0 -0 -0 -0 -0 -0 -0 -0 -0 -0 -0 -0 -0 -0 -0 -0 -0 -0 -0 -0 -0 -0 -0 -0 -0 -0 -0 -0 -0 -0 -0 -0 -0
-0 -0 -0 -0 -0 -0 -0 -0 -0 -0 -0 -0 -0 -0 -0 -0 -0 -0 -0 -0 -0 -0 -0 -0 -0 -0 -0 -0 -0 -0 -0 -0 -0 -0 -0 -0 -0 -0 -0 -0 -0 -0 -0 -0 -0 -0 -0
-0 -0 -0 -0 -0 -0 -0 -0 -0 -0 -0 -0 -0 -0 -0 -0 -0 -0 -0 -0 -0 -0 -0 -0 -0 -0 -0 -0 -0 -0 -0 -0 -0 -0 -0 -0 -0 -0 -0 -0 -0 -0 -0 -0 -0 -0 -0
-0 -0 -0 -0 -0 -0 -0 -0 -0 -0 -0 -0 -0 -0 -0 -0 -0 -0 -0 -0 -2 -2 -0 -0 -0 -0 -0 -0 -0 -0 -0 -0 -0 -0 -0 -0 -0 -0 -0 -0 -0 -0 -0 -0 -0 -0 -0
-0 -0 -0 -0 -0 -0 -0 -0 -0 -0 -0 -0 -0 -0 -0 -0 -0 -0 -0 -1 -0 -0 -0 -1 -2 -2 -1 -4 -0 -0 -0 -0 -0 -0 -0 -0 -0 -0 -0 -0 -0 -0 -0 -0 -0 -0 -0
-0 -0 -0 -0 -0 -0 -0 -0 -0 -0 -0 -0 -0 -0 -0 -0 -0 -0 -0 -0 -0 -0 -1 -20 -3 -3 -4 -0 -0 -0 -0 -0 -0 -0 -0 -0 -0 -0 -0 -0 -0 -13 -0 -0 -0 -4 -0
-0 -0 -0 -0 -0 -0 -0 -0 -0 -0 -0 -0 -0 -0 -0 -0 -0 -0 -0 -0 -0 -0 -1 -0 -1 -7 -0 -0 -1 -1 -0 -0 -0 -0 -0 -0 -0 -0 -0 -0 -2 -25 -59 -4 -1 -1 -0
-0 -0 -0 -0 -0 -0 -0 -0 -0 -0 -0 -0 -0 -0 -0 -0 -0 -0 -1 -1 -2 -2 -1 -0 -0 -0 -0 -1 -0 -1 -2 -5 -1 -0 -0 -0 -0 -0 -0 -0 -0 -15 -0 -0 -0 -4 -0
-0 -0 -0 -0 -0 -0 -0 -0 -0 -0 -0 -1 -0 -0 -0 -0 -0 -0 -0 -0 -0 -0 -0 -0 -0 -0 -1 -1 -0 -0 -1 -2 -1 -2 -0 -0 -0 -0 -0 -0 -7 -137 -182 -114 -35 -0 -0
-0 -0 -0 -0 -0 -0 -0 -0 -0 -0 -0 -0 -0 -0 -1 -0 -0 -0 -0 -0 -0 -0 -2 -0 -2 -1 -0 -0 -0 -0 -0 -3 -1 -2 -7 -0 -0 -0 -0 -0 -0 -0 -128 -46 -38 -0 -0
-0 -0 -0 -0 -0 -4 -0 -0 -0 -0 -0 -0 -0 -0 -0 -0 -0 -0 -0 -0 -0 -0 -1 -0 -11 -0 -6 -0 -0 -0 -0 -0 -1 -3 -5 -3 -0 -0 -0 -3 -0 -0 -0 -1 -0 -191 -0
Wind_Speed
35 36 36 36 36 36 36 36 37 37 37 37 37 37 37 37 37 37 37 37 37 36 34 33 30 27 23 22 23 20 16 8 1 12 6 6 14 21 21 24 23 26 22 21 20 19 16
35 35 36 37 37 37 37 37 37 37 38 38 38 38 38 38 38 38 37 37 36 35 34 32 26 20 21 24 15 14 13 7 10 13 16 14 21 22 24 26 25 18 24 26 24 22 17
35 37 37 38 38 38 38 37 38 38 38 39 39 39 39 39 38 38 38 36 35 34 30 25 18 16 21 24 16 17 14 13 16 14 21 23 23 19 21 23 31 28 27 25 25 23 20
34 34 35 37 35 35 36 37 37 38 38 39 39 39 39 39 39 38 37 34 32 27 23 18 12 16 21 15 19 20 16 15 15 17 18 21 23 28 23 23 25 28 30 25 21 20 20
28 27 27 32 35 34 33 35 37 38 37 38 39 39 39 39 38 37 34 33 25 19 16 13 15 18 20 15 15 14 16 18 14 15 16 16 25 25 17 32 28 27 22 23 18 19 16
27 29 30 31 36 35 34 33 37 35 36 36 39 39 37 36 36 34 32 25 16 15 15 17 17 17 16 15 17 20 20 16 13 13 14 17 21 26 28 26 28 25 27 21 21 17 17
30 32 33 34 35 32 31 33 33 33 31 30 38 30 29 32 34 30 27 17 18 15 17 19 20 22 21 21 23 15 14 15 16 15 21 21 25 29 28 37 39 26 28 28 21 17 20
30 32 33 34 34 31 30 29 27 25 13 11 20 29 29 31 30 27 22 17 17 18 19 16 17 18 19 18 17 16 14 17 20 25 24 23 34 31 32 33 39 34 33 30 21 21 24
31 30 30 31 31 30 29 28 27 24 11 14 13 36 33 30 26 21 19 17 19 18 15 15 15 17 17 15 15 12 17 19 24 27 28 30 24 32 29 33 34 39 35 31 30 25 24
26 26 28 29 30 30 29 29 29 32 13 16 14 37 35 29 18 19 17 19 22 16 15 15 14 15 17 15 14 15 18 21 23 30 28 36 26 24 29 34 35 33 34 29 26 26 28
26 26 27 27 29 30 31 31 32 34 14 16 14 28 23 19 19 17 19 23 19 14 18 16 15 15 16 17 15 15 16 21 25 28 30 31 31 30 31 32 33 35 24 30 29 31 29
27 26 25 26 29 31 31 32 35 41 24 20 20 26 22 17 16 18 22 21 14 12 16 14 15 18 14 15 14 14 14 19 21 25 30 36 25 30 32 31 30 32 25 26 29 33 33
27 26 25 27 29 32 32 34 37 41 30 25 24 21 20 18 19 22 21 13 13 16 15 17 18 18 15 16 14 11 12 17 26 33 34 32 32 27 28 31 32 31 28 24 29 30 33
27 26 25 26 29 32 33 35 37 41 38 28 26 18 17 18 21 22 15 11 12 16 16 16 17 16 16 16 13 12 13 16 18 27 32 37 38 35 26 35 31 38 37 31 22 29 33
28 26 26 27 28 31 33 34 40 41 38 31 3 15 16 21 20 22 11 8 15 16 18 19 17 18 16 15 16 12 11 17 19 22 31 34 41 24 34 29 34 35 47 39 36 33 35
29 26 26 27 28 31 33 35 40 40 35 30 19 15 20 19 17 16 12 14 16 16 17 18 19 18 18 18 16 15 15 17 19 19 22 25 35 30 31 33 32 35 35 41 39 40 30
30 27 26 27 29 32 33 33 39 38 33 25 17 16 21 20 14 12 13 16 14 16 17 19 17 17 17 18 17 16 17 14 17 20 20 24 30 33 30 38 35 35 37 42 41 42 39
31 27 25 26 28 31 31 32 37 37 33 23 18 18 22 19 14 16 15 16 16 16 16 17 17 17 18 17 18 17 15 18 18 19 22 22 27 34 38 30 36 37 40 40 44 44 47
29 25 24 26 28 30 30 31 35 34 34 23 20 19 21 17 15 16 15 15 17 17 18 17 17 18 17 18 20 17 16 16 18 19 20 21 27 36 33 30 31 41 36 39 43 42 44
28 24 24 26 27 30 29 31 32 32 32 21 19 18 20 20 18 17 15 15 15 18 18 19 17 18 18 19 19 19 18 17 19 19 20 21 27 33 34 29 27 36 42 39 41 46 44
25 22 21 23 25 28 27 30 31 31 29 19 21 20 19 19 20 18 16 17 15 16 18 18 19 21 21 22 22 23 21 22 18 19 21 23 30 29 32 29 31 34 35 39 45 44 45
22 19 20 22 24 26 25 29 29 30 26 20 20 19 19 20 18 16 17 18 17 17 19 18 20 20 21 23 22 22 22 21 23 22 23 23 29 30 35 32 33 37 36 38 39 42 43
22 17 18 20 22 25 23 27 27 28 22 21 19 18 16 18 18 17 19 18 18 16 18 18 20 21 21 19 22 23 24 25 26 26 25 26 28 30 38 29 32 41 41 37 37 37 40
20 15 17 18 21 21 21 24 23 25 25 21 20 18 17 19 18 19 18 19 20 20 18 16 18 19 19 23 25 26 27 28 28 29 27 28 29 30 33 30 42 27 24 32 33 31 32
13 13 15 18 19 17 19 21 20 21 23 20 19 18 17 19 19 18 18 19 19 19 16 16 15 16 19 20 23 24 23 25 28 30 30 28 31 32 36 39 30 28 26 27 32 31 28
10 13 14 16 17 16 17 18 17 18 20 19 21 18 17 18 18 18 17 17 17 18 17 16 15 12 13 19 20 22 25 24 26 24 26 29 30 35 34 42 45 27 24 23 26 38 26
9 11 12 15 15 14 15 16 15 16 18 17 19 19 17 18 16 16 16 16 16 17 18 16 15 13 12 15 19 21 24 24 29 31 28 29 32 40 39 38 32 23 25 21 37 33 26
8 10 11 13 14 12 14 14 14 14 16 17 17 18 16 16 16 14 14 15 15 16 17 17 16 14 12 10 10 23 23 24 28 30 28 32 35 38 41 42 44 23 25 31 23 22 22
7 8 12 12 12 12 13 13 13 13 14 15 16 16 15 14 17 14 13 12 5 15 16 16 9 10 13 9 9 17 23 23 27 29 26 34 34 35 36 40 25 24 23 21 20 20 20
Wind_Direction
10 6 1 359 357 353 350 346 343 341 338 336 331 326 323 323 319 315 308 305 303 297 296 296 297 298 303 292 285 302 306 314 257 261 176 232 251 250 256 247 247 243 248 246 241 245 256
11 10 5 1 357 354 350 347 345 341 340 336 332 325 323 319 315 312 308 305 303 301 300 299 305 310 299 283 306 312 305 296 278 264 252 250 252 252 256 246 245 257 247 249 246 242 251
11 6 358 353 351 353 352 348 344 342 338 334 329 325 321 318 315 311 310 305 303 303 309 314 318 314 295 281 301 295 298 283 273 264 254 249 251 252 258 256 238 244 247 252 246 239 255
16 13 9 3 6 6 1 355 352 347 344 340 333 327 322 318 313 309 307 306 305 315 323 329 332 313 292 304 292 282 281 279 277 262 267 254 251 246 257 257 244 240 243 255 254 253 259
24 24 21 14 7 6 7 0 353 349 351 345 336 328 322 319 314 308 305 306 317 334 342 349 326 307 293 308 296 289 277 270 270 263 262 264 245 247 255 238 246 243 253 251 257 258 266
23 19 17 14 6 6 7 5 357 359 357 355 343 327 315 312 311 305 303 314 344 349 344 325 319 306 304 300 295 282 276 267 260 254 249 258 250 247 246 245 241 243 243 252 250 255 255
17 14 13 10 9 11 11 7 6 5 7 6 324 304 300 305 307 301 312 337 328 330 325 308 303 298 299 296 287 284 277 257 256 243 245 247 247 244 245 231 228 250 243 243 250 254 251
15 12 10 10 10 13 14 13 14 16 9 322 306 303 300 302 302 299 323 332 333 322 312 326 320 311 307 303 290 277 269 252 244 241 246 247 246 245 244 241 233 239 239 240 251 252 249
12 11 12 12 12 14 14 14 16 17 327 315 328 333 309 300 293 340 350 341 318 314 316 321 326 325 325 315 295 282 262 257 245 242 241 245 256 245 244 240 238 234 238 241 245 248 252
16 17 15 14 13 14 13 13 12 6 313 310 316 321 318 301 6 357 354 331 306 308 306 314 318 324 318 315 308 294 268 259 250 243 244 244 249 252 242 239 235 240 237 245 246 243 249
16 17 16 16 14 13 12 10 7 3 312 310 311 303 10 18 10 3 341 316 311 301 287 311 309 325 313 305 311 305 276 259 250 245 242 243 245 244 242 239 235 235 239 243 246 244 251
14 15 16 16 14 12 11 8 1 342 305 305 303 302 20 39 37 8 329 313 319 306 290 306 309 301 301 312 311 313 283 265 261 252 245 245 252 246 242 240 238 236 241 243 246 244 248
11 13 14 14 13 9 9 5 356 335 308 304 302 0 33 35 17 345 327 352 328 298 303 300 295 301 301 299 304 308 291 263 251 242 241 242 246 246 244 237 235 234 231 238 244 244 247
13 13 14 14 13 9 8 4 358 333 319 305 299 29 37 32 358 322 356 8 333 307 296 301 302 299 292 297 303 301 291 271 271 253 246 238 238 238 242 236 235 231 232 239 237 245 246
12 14 14 12 11 9 7 4 346 332 323 309 340 44 40 21 5 315 17 30 335 306 296 295 298 291 292 299 292 294 297 280 276 263 244 242 236 240 237 240 238 233 232 236 247 245 248
10 11 10 9 9 8 6 2 345 335 320 314 30 45 25 25 27 3 17 354 321 316 305 298 291 292 286 287 285 285 282 290 277 274 259 252 241 238 241 239 241 240 237 233 238 235 244
5 8 9 8 8 6 5 4 345 334 321 5 41 39 19 18 52 53 22 343 334 330 315 303 299 296 294 285 285 284 282 286 291 275 265 257 242 236 239 233 233 234 238 234 237 235 231
2 6 8 9 7 6 7 5 345 343 325 27 34 28 17 16 38 27 19 344 334 328 328 315 306 301 293 294 285 283 280 275 292 283 259 261 248 239 237 242 239 241 236 234 233 230 227
2 4 6 6 7 5 7 5 348 349 355 21 23 25 22 29 28 18 15 2 339 327 319 313 306 299 300 292 279 282 281 282 287 284 269 266 244 235 239 238 240 235 237 236 235 238 231
1 2 5 5 7 4 7 3 352 353 357 26 27 25 25 23 18 10 5 355 346 334 325 315 306 300 293 287 288 278 279 282 283 284 279 268 249 239 237 241 242 233 234 237 235 231 231
356 0 4 7 8 5 7 360 353 352 360 33 24 22 25 18 13 11 8 358 350 338 328 319 305 293 287 280 278 274 278 278 280 280 274 264 248 246 246 249 243 239 238 236 234 235 232
354 0 5 7 8 5 8 358 355 352 9 32 24 25 28 25 26 25 15 1 350 343 330 321 304 295 287 279 278 273 277 276 271 273 268 265 249 252 245 247 244 241 240 239 239 237 237
359 3 6 7 8 4 11 358 360 355 23 27 32 36 39 33 35 28 16 17 11 3 348 329 309 290 282 284 284 283 281 278 273 268 264 259 254 248 240 243 244 240 238 239 239 241 237
352 3 5 10 8 12 13 4 10 7 18 30 33 40 43 32 37 33 42 43 42 43 31 358 314 289 289 288 283 277 275 271 268 264 262 256 252 249 242 242 235 243 247 241 239 240 244
2 6 8 9 11 19 17 11 19 22 22 35 40 43 47 43 45 56 55 60 66 67 94 104 87 306 302 291 278 274 268 269 265 259 257 256 251 246 239 237 242 245 246 240 235 240 249
7 9 13 12 18 22 20 24 32 31 33 41 39 49 53 56 54 64 65 68 64 76 89 98 111 140 184 293 280 272 265 269 263 261 261 254 251 244 240 235 234 246 248 253 251 239 254
15 16 21 18 26 32 25 29 42 43 41 47 44 46 58 56 68 78 69 69 46 61 69 93 101 112 128 263 289 282 277 271 262 255 253 247 246 239 238 238 242 254 256 253 236 239 256
16 23 28 29 32 38 27 40 53 54 51 47 49 46 57 63 71 84 82 76 44 40 70 77 82 88 93 122 300 279 286 278 270 261 250 246 243 240 237 235 236 267 250 242 253 260 260
16 32 22 34 37 41 31 58 55 62 58 57 50 59 57 78 60 84 95 100 110 359 30 69 122 88 65 95 70 341 296 283 275 261 253 248 244 244 238 236 255 262 256 260 264 262 263